STARLINK-5192, 54074

Orbit data source: Space-Track

STARLINK-5192, 54074 is a payload satellite owned by SpaceX/Seattle (US) in LEO that was launched on Thu, 20 Oct 2022 UTC via an FALCON 9 launch vehicle from the Air Force Eastern Test Range (AFETR). Payload-class satellites include a variety of spacecraft equipped with specific instruments for various scientific and technological missions. These include communications satellites like Starlink; space stations such as the ISS; scientific satellites like the Hubble; Earth observation satellites from companies like Planet Labs, Umbra, and HawkEye 360; GPS; miniature CubeSats for education and research; and military/defense satellites.

Loading next visibility...
Identifier
54074, 2022-136Z
Orbit
LEO
Last TLE update
10 hours ago
Origin
Manufacturer
SpaceX/Seattle
Mission
Operational Commercial Communications
Bus & Motor
STARLINK, Unknown motor
Mass
305 kg wet, ~290 kg dry
Launch date (UTC)
2022-10-20 (3 years ago)
Launch vehicle
FALCON 9
Launch site
Air Force Eastern Test Range (AFETR)
Object type
Payload
Rocket body
Debris
Shape & HBR
Box + 1 Pan, 8.86 m
Radar Cross Section
13.562 m², Large (>1 m²)

Expand to show TLE details & history

TLE from 10 hours ago
0 STARLINK-5192
1 54074U 22136Z   25163.25965122  .00001055  00000-0  84358-4 0  9996
2 54074  53.2160 117.7426 0001625  55.1361 304.9783 15.08854596146503
Epoch: 2025-06-12T06:13Z
TLE epoch observation values (Epoch: 2025-06-12T06:13:53.865Z)
Latitude
-0.00008°
Longitude
123.43774°
Altitude
539.952 km
Speed
7.594 km/s
True Right ascension
07h 50m 58s
True Declination
0° 00' 00"
Sunlit
Object was in daylight at epoch
Visualization orbit readout
Latitude
45.58455°
Longitude
170.96765°
Altitude
543.407 km
Speed
7.597 km/s
Apparent Right ascension
12h 44m 43s
Apparent Declination
5° 31' 54"
Sunlit
Object is in daylight
Visualization observer readout
Local Sidereal Time
02:27:17
Azimuth
33.542° NE
Elevation
-38.784°
Doppler factor
1
Orbital elements
Apogee altitude
541.068 km
Perigee altitude
538.82 km
Semi-major axis
6,918.081 km
Eccentricity
0.00016
Inclination
53.216°
RAAN
117.7426°
Arg. of periapsis
55.1361°
True anomaly
Unknown
Mean anomaly
304.9783°
Eccentric anomaly
Unknown
Mean motion
3.77194 °/min
Orbital period
95.44 mins
BSTAR
0.000084358
Loading maneuver chart data...
Loading SW <> Apogee altitude chart data...
Loading historical data...
Loading historical data...
Loading historical data...
Loading historical data...
Loading historical data...
Loading historical data...
Loading historical data...

STARLINK-5192 Visibility forecast

Observer location: undefined°, undefined°

Span
Click to sort rows by Start time (UTC) header in descending order
Start Az.
Max El. time (UTC)
Max El. Az.
Max El.
End time (UTC)
End Az.
4 mins2025-06-12 22:16:49.366Z155.849° SSE2025-06-12 22:18:49.366Z124.474° SE14.213°2025-06-12 22:20:49.366Z93.755° ESE
6 mins2025-06-12 23:54:49.366Z238.138° WSW2025-06-12 23:57:49.366Z349.418° N43.446°2025-06-13 00:00:49.366Z45.364° ENE
4 mins2025-06-13 01:35:49.366Z309.228° NW2025-06-13 01:37:49.366Z346.031° N17.635°2025-06-13 01:39:49.366Z19.268° NNE
5 mins2025-06-13 04:56:49.366Z345.383° N2025-06-13 04:58:49.366Z24.391° NE20.632°2025-06-13 05:01:49.366Z74.43° E
6 mins2025-06-13 06:35:49.366Z306.362° NW2025-06-13 06:38:49.366Z168.535° S43.56°2025-06-13 06:41:49.366Z136.373° SSE
|